TimeEDT,TemperatureF,Dew PointF,Humidity,Sea Level PressureIn,VisibilityMPH,Wind Direction,Wind SpeedMPH,Gust SpeedMPH,PrecipitationIn,Events,Conditions,WindDirDegrees,DateUTC
12:53 AM,54.0,54.0,100,30.15,4.0,Calm,Calm,-,N/A,,Mostly Cloudy,0,2013-09-16 04:53:00
1:24 AM,53.6,51.8,94,30.15,1.8,NW,3.5,-,N/A,,Scattered Clouds,310,2013-09-16 05:24:00
1:29 AM,53.6,51.8,94,30.15,0.8,NW,3.5,-,N/A,,Mostly Cloudy,310,2013-09-16 05:29:00
1:44 AM,53.6,53.6,100,30.15,1.2,Calm,Calm,-,N/A,,Mostly Cloudy,0,2013-09-16 05:44:00
1:53 AM,53.1,53.1,100,30.16,1.0,Calm,Calm,-,N/A,,Overcast,0,2013-09-16 05:53:00
1:59 AM,53.6,53.6,100,30.16,2.0,Calm,Calm,-,N/A,,Overcast,0,2013-09-16 05:59:00
2:11 AM,53.6,51.8,94,30.16,3.0,Calm,Calm,-,N/A,,Overcast,0,2013-09-16 06:11:00
2:53 AM,54.0,53.1,97,30.17,5.0,NW,3.5,-,N/A,,Overcast,320,2013-09-16 06:53:00
3:27 AM,53.6,53.6,100,30.17,6.0,Calm,Calm,-,N/A,,Overcast,0,2013-09-16 07:27:00
3:53 AM,52.0,52.0,100,30.18,6.0,Calm,Calm,-,N/A,,Scattered Clouds,0,2013-09-16 07:53:00
4:53 AM,52.0,51.1,97,30.20,8.0,North,3.5,-,N/A,,Clear,350,2013-09-16 08:53:00
5:09 AM,50.0,48.2,94,30.19,5.0,North,3.5,-,N/A,,Scattered Clouds,360,2013-09-16 09:09:00
5:18 AM,51.8,51.8,100,30.20,6.0,North,3.5,-,N/A,,Mostly Cloudy,10,2013-09-16 09:18:00
5:26 AM,53.6,51.8,94,30.20,6.0,North,5.8,-,N/A,,Mostly Cloudy,10,2013-09-16 09:26:00
5:40 AM,53.6,53.6,100,30.20,8.0,NNE,8.1,-,N/A,,Overcast,20,2013-09-16 09:40:00
5:53 AM,54.0,53.1,97,30.22,9.0,NNE,8.1,-,N/A,,Overcast,20,2013-09-16 09:53:00
6:07 AM,55.4,53.6,94,30.21,10.0,NNE,6.9,-,N/A,,Overcast,20,2013-09-16 10:07:00
6:53 AM,54.0,53.1,97,30.23,10.0,North,4.6,-,N/A,,Mostly Cloudy,10,2013-09-16 10:53:00
7:53 AM,55.0,53.1,93,30.26,10.0,NNE,8.1,-,N/A,,Overcast,20,2013-09-16 11:53:00
8:30 AM,55.4,53.6,94,30.26,10.0,North,5.8,-,N/A,,Scattered Clouds,10,2013-09-16 12:30:00
8:53 AM,55.9,53.1,90,30.27,10.0,NNE,9.2,-,N/A,,Scattered Clouds,20,2013-09-16 12:53:00
9:01 AM,55.4,51.8,88,30.26,10.0,NNE,12.7,-,N/A,,Mostly Cloudy,30,2013-09-16 13:01:00
9:53 AM,55.9,52.0,87,30.30,10.0,NNE,12.7,-,N/A,,Overcast,30,2013-09-16 13:53:00
10:43 AM,57.2,51.8,82,30.31,10.0,NNE,11.5,-,N/A,,Overcast,30,2013-09-16 14:43:00
10:53 AM,57.0,51.1,81,30.32,10.0,NE,11.5,-,N/A,,Overcast,40,2013-09-16 14:53:00
11:53 AM,57.0,48.9,74,30.34,10.0,NE,10.4,-,N/A,,Overcast,50,2013-09-16 15:53:00
12:15 PM,60.8,51.8,72,30.33,10.0,ENE,10.4,-,N/A,,Scattered Clouds,70,2013-09-16 16:15:00
12:39 PM,59.0,50.0,72,30.33,10.0,NNE,9.2,-,N/A,,Mostly Cloudy,20,2013-09-16 16:39:00
12:53 PM,60.1,50.0,69,30.34,10.0,NNE,5.8,-,N/A,,Overcast,30,2013-09-16 16:53:00
1:53 PM,62.1,50.0,65,30.34,10.0,NNE,8.1,-,N/A,,Overcast,20,2013-09-16 17:53:00
2:53 PM,63.0,48.0,58,30.34,10.0,North,11.5,-,N/A,,Overcast,360,2013-09-16 18:53:00
3:53 PM,63.0,46.9,56,30.33,10.0,NNE,9.2,-,N/A,,Mostly Cloudy,20,2013-09-16 19:53:00
4:53 PM,60.1,46.9,62,30.33,10.0,NNE,10.4,-,N/A,,Mostly Cloudy,30,2013-09-16 20:53:00
5:53 PM,60.1,46.0,60,30.34,10.0,NNE,9.2,-,N/A,,Partly Cloudy,20,2013-09-16 21:53:00
6:53 PM,60.1,45.0,57,30.34,10.0,North,4.6,-,N/A,,Partly Cloudy,10,2013-09-16 22:53:00
7:53 PM,55.0,46.0,72,30.35,10.0,North,4.6,-,N/A,,Partly Cloudy,360,2013-09-16 23:53:00
8:53 PM,52.0,46.9,83,30.36,10.0,NE,4.6,-,N/A,,Overcast,40,2013-09-17 00:53:00
9:53 PM,48.9,45.0,86,30.38,10.0,NE,4.6,-,N/A,,Clear,40,2013-09-17 01:53:00
10:53 PM,50.0,45.0,83,30.38,10.0,East,5.8,-,N/A,,Clear,80,2013-09-17 02:53:00
11:53 PM,48.9,44.1,83,30.39,10.0,ENE,6.9,-,N/A,,Clear,70,2013-09-17 03:53:00